Location: Jackson Park
(37.2862°N, 79.9123°W)
Time: 20:49:58
(UTC+00:00)

Vanguard 2 - Pass Details

Date: 16 May 2026
Orbit: 553 x 2894 km, 32.9° (Epoch: 6 June)

Event Time Altitude Azimuth Distance (km) Brightness Sun altitude
Rises 06:14:10 0° 232° (SW) 6,108 - -32.0°
Reaches altitude 10° 06:17:59 10° 228° (SW) 5,311 - -31.7°
Exits shadow 06:29:04 46° 199° (SSW) 3,518 10.3 -31.0°
Maximum altitude 06:34:07 57° 156° (SSE) 3,255 10.3 -30.7°
Drops below altitude 10° 06:50:05 10° 84° (E) 5,268 12.1 -29.4°
Sets 06:53:50 0° 80° (E) 6,059 12.6 -29.1°
